This demonstration page uses our WeatherBlox Daily Observations layout. Learn more.

Left ArrowRight Arrow

39.51506, -84.39828

Hourly Observations for April 28, 2015

Temp ( °F °C ) Dew Point ( °F °C ) Humidity (%) Winds ( mph kmh ) Pressure ( in mb ) Visibility ( mi km ) Precip ( " mm )
12:15 am 00:15 Clear 47 8.2 38 3.1 71 71 N N/A 30.09 1019 10 16.0934 N/A
12:35 am 00:35 Clear 43 6 36 2.1 76 76 N N/A 30.09 1019 10 16.0934 N/A
12:55 am 00:55 Clear 43 6.1 37 2.8 80 80 N N/A 30.09 1019 10 16.0934 N/A
1:15 am 01:15 Clear 41 5.1 36 2.3 82 82 N N/A 30.09 1019 10 16.0934 N/A
1:35 am 01:35 Clear 40 4.7 36 2.3 85 85 N N/A 30.09 1019 10 16.0934 N/A
1:55 am 01:55 Clear 40 4.2 35 1.9 85 85 N N/A 30.12 1020 10 16.0934 N/A
2:15 am 02:15 Clear 39 4 35 1.8 86 86 N 3 6 30.12 1020 10 16.0934 N/A
2:35 am 02:35 Clear 39 4 35 1.7 85 85 N N/A 30.12 1020 10 16.0934 N/A
2:55 am 02:55 Clear 39 4 35 1.8 86 86 N N/A 30.12 1020 10 16.0934 N/A
3:15 am 03:15 Clear 39 4 36 2 87 87 N N/A 30.12 1020 10 16.0934 N/A
3:35 am 03:35 Clear 39 3.9 35 1.8 86 86 N 5 7 30.12 1020 10 16.0934 N/A
3:55 am 03:55 Clear 37 2.6 33 0.5 86 86 NNE 3 6 30.12 1020 10 16.0934 N/A
4:15 am 04:15 Clear 39 3.8 35 1.6 86 86 N 3 6 30.12 1020 10 16.0934 N/A
4:35 am 04:35 Clear 37 2.6 33 0.5 86 86 N N/A 30.15 1021 10 16.0934 N/A
4:55 am 04:55 Clear 37 2.6 33 0.5 86 86 N N/A 30.15 1021 10 16.0934 N/A
5:15 am 05:15 Clear 37 2.6 33 0.5 86 86 N 3 6 30.15 1021 10 16.0934 N/A
5:35 am 05:35 Clear 37 2.6 33 0.6 87 87 N N/A 30.15 1021 10 16.0934 N/A
5:55 am 05:55 Clear 37 2.6 33 0.7 87 87 N N/A 30.15 1021 10 16.0934 N/A
6:15 am 06:15 Clear 35 1.9 32 0.1 88 88 N 5 7 30.15 1021 10 16.0934 N/A
6:35 am 06:35 Clear 37 2.6 33 0.8 88 88 N N/A 30.15 1021 10 16.0934 N/A
6:55 am 06:55 Sunny 36 2.2 33 0.3 87 87 N N/A 30.18 1022 7 11.26538 N/A
7:15 am 07:15 Sunny 37 2.6 33 0.8 88 88 N N/A 30.18 1022 7 11.26538 N/A
7:35 am 07:35 Sunny 37 2.6 33 0.8 88 88 N N/A 30.18 1022 7 11.26538 N/A
7:55 am 07:55 Sunny 40 4.2 36 2.3 88 88 N N/A 30.18 1022 10 16.0934 N/A
8:15 am 08:15 Sunny 41 5.2 37 3 86 86 N N/A 30.15 1021 10 16.0934 N/A
8:35 am 08:35 Sunny 43 6.3 38 3.6 83 83 N N/A 30.15 1021 10 16.0934 N/A
8:55 am 08:55 Sunny 48 9 42 5.3 78 78 NNE 3 6 30.15 1021 10 16.0934 N/A
9:15 am 09:15 Sunny 49 9.6 37 2.8 63 63 NE 9 15 30.15 1021 10 16.0934 N/A
9:35 am 09:35 Sunny 52 11 38 3.4 60 60 NNE 9 15 30.15 1021 10 16.0934 N/A
9:55 am 09:55 Sunny 55 12.5 39 3.9 56 56 NE 10 17 30.15 1021 10 16.0934 N/A
10:15 am 10:15 Sunny 55 12.5 38 3.3 54 54 N 5 7 30.15 1021 10 16.0934 N/A
10:35 am 10:35 Sunny 55 12.5 37 2.5 51 51 ENE 5 7 30.15 1021 10 16.0934 N/A
10:55 am 10:55 Sunny 55 12.5 36 2.1 49 49 NE 7 11 30.15 1021 10 16.0934 N/A
11:15 am 11:15 Sunny 56 13.1 35 1.4 45 45 NNE 6 9 30.15 1021 10 16.0934 N/A
11:35 am 11:35 Sunny 57 13.8 35 1.8 44 44 NNE 9 15 30.15 1021 10 16.0934 N/A
11:55 am 11:55 Sunny 56 13.5 33 0.8 42 42 NE 6 9 30.15 1021 10 16.0934 N/A
12:15 pm 12:15 Sunny 57 13.8 33 0.8 41 41 NNE 5 7 30.12 1020 10 16.0934 N/A
12:35 pm 12:35 Sunny 58 14.3 34 0.9 40 40 ENE 8 13 30.12 1020 10 16.0934 N/A
12:55 pm 12:55 Sunny 58 14.3 34 0.9 40 40 ENE 9 15 30.12 1020 10 16.0934 N/A
1:15 pm 13:15 Sunny 60 15.3 35 1.7 40 40 ENE 9 15 30.09 1019 10 16.0934 N/A
1:35 pm 13:35 Sunny 60 15.3 35 1.9 41 41 N N/A 30.09 1019 10 16.0934 N/A
1:55 pm 13:55 Sunny 60 15.4 35 1.9 40 40 NE 5 7 30.09 1019 10 16.0934 N/A
2:15 pm 14:15 Sunny 60 15.6 35 1.7 39 39 E 8 13 30.03 1017 10 16.0934 N/A
2:35 pm 14:35 Sunny 61 16.3 35 1.5 37 37 ENE 7 11 30.03 1017 10 16.0934 N/A
2:55 pm 14:55 Sunny 62 16.4 34 1.1 36 36 E 7 11 30.03 1017 10 16.0934 N/A
3:15 pm 15:15 Sunny 62 16.4 33 0.4 34 34 N 3 6 30 1016 10 16.0934 N/A
3:35 pm 15:35 Sunny 62 16.6 33 0.5 34 34 NE 10 17 30 1016 10 16.0934 N/A
3:55 pm 15:55 Sunny 62 16.6 32 0.2 33 33 NNE 7 11 29.97 1015 10 16.0934 N/A
4:15 pm 16:15 Sunny 62 16.8 33 0.4 33 33 NE 7 11 29.97 1015 10 16.0934 N/A
4:35 pm 16:35 Sunny 63 17 32 0.2 32 32 NW 5 7 29.97 1015 10 16.0934 N/A
4:55 pm 16:55 Sunny 63 17.2 33 0.3 32 32 N N/A 29.97 1015 10 16.0934 N/A
5:15 pm 17:15 Sunny 64 17.6 34 0.9 33 33 E 5 7 29.97 1015 10 16.0934 N/A
5:35 pm 17:35 Sunny 64 17.7 35 1.5 34 34 N 7 11 29.94 1014 10 16.0934 N/A
5:55 pm 17:55 Sunny 63 17.4 33 0.8 33 33 N 3 6 29.94 1014 10 16.0934 N/A
6:15 pm 18:15 Sunny 64 17.7 34 1 33 33 N 8 13 29.94 1014 10 16.0934 N/A
6:35 pm 18:35 Sunny 63 17.2 32 undefined 31 31 N N/A 29.94 1014 10 16.0934 N/A
6:55 pm 18:55 Sunny 63 17 33 0.8 34 34 NE 6 9 29.94 1014 10 16.0934 N/A
7:15 pm 19:15 Sunny 62 16.8 33 0.3 33 33 N 5 7 29.94 1014 10 16.0934 N/A
7:35 pm 19:35 Sunny 62 16.6 34 1.2 36 36 NNE 7 11 29.94 1014 10 16.0934 N/A
7:55 pm 19:55 Sunny 61 16 34 0.9 36 36 NNE 5 7 29.94 1014 10 16.0934 N/A
8:15 pm 20:15 Sunny with Light Rain 60 15.5 35 1.4 39 39 NNE 3 6 29.94 1014 10 16.0934 N/A
8:35 pm 20:35 Partly Cloudy 59 15.1 39 4 48 48 N 3 6 29.94 1014 10 16.0934 N/A
8:55 pm 20:55 Mostly Cloudy 57 13.8 39 3.8 51 51 N 3 6 29.97 1015 10 16.0934 N/A
9:15 pm 21:15 Partly Cloudy 56 13.6 41 4.8 56 56 N N/A 29.97 1015 10 16.0934 N/A
9:35 pm 21:35 Partly Cloudy 57 14.1 37 2.6 46 46 N N/A 29.97 1015 10 16.0934 N/A
9:55 pm 21:55 Mostly Cloudy 54 12.4 44 6.6 68 68 N 3 6 29.97 1015 10 16.0934 N/A
10:15 pm 22:15 Partly Cloudy 52 11 41 5.1 67 67 N N/A 29.97 1015 10 16.0934 N/A
10:35 pm 22:35 Clear 50 10.2 43 5.9 75 75 N 3 6 29.97 1015 10 16.0934 N/A
10:55 pm 22:55 Clear 51 10.3 41 4.9 69 69 N N/A 29.97 1015 10 16.0934 N/A
11:15 pm 23:15 Clear 49 9.6 42 5.5 76 76 N N/A 29.97 1015 10 16.0934 N/A
11:35 pm 23:35 Clear 48 9.1 44 6.4 83 83 N N/A 29.97 1015 10 16.0934 N/A
11:55 pm 23:55 Clear 49 9.6 43 5.9 78 78 NNE 3 6 29.97 1015 10 16.0934 N/A

Powered by AerisWeather